User: anonymous   Login
Location: Karaa?a�
(36.7158°N, 30.4165°E)
Time: 17:59:02
(UTC+00:00)
Language:

ATLAS 2AS CENTAUR R/B - Orbit

View from above orbital plane
View from above orbital plane
View from above satellite
View from above satellite

Ground track
Ground track

The orbit data is extracted from the following two-line orbital elements,

1 28096U 03054B   20176.95613199 0.00000000  00000-0  00000-0 0    09
2 28096  63.6933 148.3511 0241231 228.5936 131.4064 13.40848463    08
Epoch (UTC): 24 June 2020 22:56:49
Eccentricity: 0.0241231
inclination: 63.6933°
perigee height: 925 km
apogee height: 1286 km
right ascension of ascending node: 148.3511°
argument of perigee: 228.5936°
revolutions per day: 13.40848463
mean anomaly at epoch: 131.4064°
orbit number at epoch: 0

The dashed part of the orbit path shows where the satellite is in the earth's shadow,  

DLR